Starlink 30706

operational
NORAD ID: 57947 Int'l Des: 2023-148 Owner: SPXS Country: US Constellation: starlink
LEOCIRCULAR

About Starlink 30706

Description loading...

Live Position

Loading 3D Globe...

Upcoming Passes

Altitude History

Altitude vs Time

uPlot chart will show altitude changes over time

Two-Line Element Set

1 57947U 23148N 25310.98628163 -.00003059 00000-0 -91283-4 0 9990
2 57947 53.1604 234.3815 0001328 31.0098 329.0981 15.30166022119632
Epoch: Nov 6, 2025 • Age: 17 hours

Current Status

Altitude 493.5 km
Velocity 7.62 km/s
Sub-Earth Point -51.58°S, 134.61°W
Launch Date Sep 25, 2023
Age 2.1 years
Type internet

Technical Details

Classification Payload
Mass 730.00 kg
Dry Mass 700.00 kg
Total Mass 730.00 kg
Length 0.30 m
Diameter 4.10 m
Span 29.00 m
Shape Box + pan
Manufacturer SPXS
Bus Type Starlink V2M
Phase Status In Orbit
Owner/State SPXS/US

Large Constellations

Loading constellations...